Regional Weather Roundup
Issued by NWS Portland, ME

Current Version | Previous Version | Text Only | Print | Product List | Glossary Off
Versions: 1 2 3 4 5 6 7 8 9 10 11 12 13 14 15 16 17 18 19 20 21 22 23 24 25 26 27 28 29 30 31 32 33 34 35 36 37 38 39 40 41 42 43 44 45 46 47 48 49 50
000 ASUS41 KGYX 171705 RWRGYX WEATHER ROUNDUP FOR MAINE AND NEW HAMPSHIRE NATIONAL WEATHER SERVICE GRAY ME 100 PM EDT FRI AUG 17 2018 MEZ002-005-006-010-012-015-018-020-021-024-026-027-029-171800- MAINE CITY SKY/WX TMP DP RH WIND PRES REMARKS PORTLAND PTSUNNY 75 57 53 SE8 30.08F SANFORD FAIR 75 58 55 VRB7 30.08F BAR HARBOR FAIR 70 60 70 VRB5 30.09F WISCASSET FAIR 74 57 55 S6 30.09F ROCKLAND FAIR 68 64 87 SE9 30.09F FRYEBURG FAIR 80 61 52 S8 30.07F LEWISTONAUBURN FAIR 75 61 61 SE7 30.08F AUGUSTA FAIR 76 58 53 SW5 30.08F WATERVILLE FAIR 75 59 57 VRB3 30.05F BANGOR FAIR 76 58 53 SW9 30.07F GREENVILLE N/A 70 55 59 S7 30.05F MILLINOCKET FAIR 74 56 53 SW8 30.07F HOULTON PTSUNNY 72 58 61 SW8 30.04F PRESQUE ISLE PTSUNNY 73 55 53 S9 30.04 FRENCHVILLE FAIR 72 55 55 S6 30.03F CARIBOU FAIR 74 55 51 S9 30.03F $$ NHZ002-005-008-009-011-012-014-171800- NEW HAMPSHIRE CITY SKY/WX TMP DP RH WIND PRES REMARKS PORTSMOUTH PTSUNNY 74 62 64 E8 30.06F ROCHESTER FAIR 78 62 57 S7 30.07F MANCHESTER NOT AVBL CONCORD FAIR 79 63 57 SE6 30.06F LACONIA FAIR 75 62 64 N3 30.07F PLYMOUTH FAIR 76 62 60 CALM 30.05F BERLIN FAIR 78 62 57 CALM 30.05F WHITEFIELD PTSUNNY 78 64 61 CALM 30.04F JAFFREY NOT AVBL LEBANON LGT RAIN 76 64 66 SW5 30.04F MT WASHINGTON FOG 55 55 100 W30 N/A VSB 1/8 $$ VTZ005-007-008-171800- VERMONT CITY SKY/WX TMP DP RH WIND PRES REMARKS ST JOHNSBURY N/A 74 62 66 MISG 30.01F MONTPELIER LGT RAIN 73 66 78 S10 30.08F BURLINGTON LGT RAIN 75 69 81 S13 29.99S $$ MAZ007-012-024-CTZ003-RIZ002-NYZ038-NYZ072-171800- SOUTHERN NEW ENGLAND AND NY CITY SKY/WX TMP DP RH WIND PRES REMARKS BOSTON PTSUNNY 77 71 82 E10 30.06F WORCESTER FAIR 81 70 69 S9 30.08F NANTUCKET FAIR 83 76 79 SW9 30.07F HX 91 PROVIDENCE PTSUNNY 84 73 69 SE10 30.05F HX 90 HARTFORD PTSUNNY 87 72 60 S13 30.02F HX 93 ALBANY CLOUDY 76 71 85 E5 30.01F NEW YORK CITY PTSUNNY 90 68 48 SW12 30.02F HX 94 $$ ANZ081-ANZ082-ANZ150-NHZ014-MEZ023>029-171800- COASTAL MARINE OBSERVATIONS STATION/POSITION TIME TEMP WIND PRES WAVE AIR SEA DIR/SP/G HT/PER (UTC) (F) (DEG/KT/KT) (MB) (FT/S) MOUNT DESERT ROC 1600 58 50/ 8/ 8 1020.0R MATINICUS ROCK 1600 62 80/ 11/ 11 1019.0F ISLE OF SHOALS 1600 66 50/ 8/ 9 1018.4F JEFFREYS LEDGE 1636 70 N/A 2/ 7 CASHES LEDGE BUO 1650 74 71 1019.1F 2/ 7 $$ .............KEY.............. WCI - WIND CHILL TC - TEMPERATURE IN CELSIUS VSB - VISIBILITY IN MILES HX - HEAT INDEX FAIR- INDICATES FEW OR NO CLOUDS BELOW 12,000 FT, WITH NO SIGNIFICANT WEATHER AND/OR OBSTRUCTIONS TO VISIBILITY.

USA.gov is the U.S. government's official web portal to all federal, state and local government web resources and services.